sat.trackr.live / text

‹ back to catalog

STARLINK-2713

NORAD 48602 · 2021-041BB

PAYLOAD ACTIVE UNKNOWN

§ Identity

Operator
Country
US
Launch date
2021-05-15
Launch site
AFETR
Launch vehicle
Mass (kg)
RCS (m²)

Purposes: comms

External: N2YO · Heavens-Above · Gunter

§ Orbital elements

Epoch: 2026-09-03T19:24:30.954240Z

Period
94.01 min
Inclination
53.1612°
Eccentricity
0.0001027
Mean motion
15.31710816 rev/d
Perigee alt
470.0 km
Apogee alt
471.4 km
Semi-major
6,848.8 km
B*
2.2134e-4
RAAN
4.9247°
Arg perigee
77.3175°
Mean anomaly
282.7941°
Rev number
29,400

§ Raw data

STARLINK-27131 48602U 21041BB  26246.80869160  .00006512  00000+0  22134-3 0  99942 48602  53.1612   4.9247 0001027  77.3175 282.7941 15.31710816294007

JSON: /api/v1/satellites/48602 · /tle

For live sub-satellite position, see the globe view (requires WebGL).

§ Visibility from observer

Set your observer location to see the next 7 days of passes ≥ 10°. The values pass through the URL so the page stays shareable.

No JS? Fill the form by hand. The geolocation button needs JavaScript.